GALAXY 33

导读

GALAXY 33是美国国际通信卫星组织(Intelsat)发射的地球同步通信卫星,于2022年10月8日发射升空,是Intelsat Galaxy星座更新计划的组成部分。该卫星重量约3654公斤,配备完整C波段通信载荷,支持可操纵的Ka波段和Ku波段波束,定点于西经133度,接替失效的Galaxy 15卫星,为北美地区提供持续稳定的通信服务,保障客户通信链路的连续性与可靠性。

基本信息
目录编号:
54026
目录名称:
GALAXY 33
国际标识:
2022-128A
轨道中心:
EARTH
卫星名称:
GALAXY 33
卫星全名:
--
卫星状态:
在轨 (已飞行1388 天)
发射日期:
2022-10-08 UTC
国别 :
美国 (US)
星等 :
--
轨道信息
数据来源 国际轨道数据 AOE轨道数据
星历时间 2026-07-27T23:29:39+0800
7小时前
查看轨道信息
2026-07-26T20:00:00+0800
1天前
查看轨道信息
半长轴 42164.476km 42164.504km
偏心率 0.0002068 0.000205
轨道倾角 0.015° 0.011°
近地点辐角 71.142° 71.704°
升交点赤经 48.111° 45.031°
平近点角 285.479° 234.451°
近地点 35777.619km 35777.723km
远地点 35795.059km 35795.011km
周期 1436.084分钟 1436.085分钟
每日圈数 1.002727 1.002726
详细信息
使用方式:
暂无
2D轨道图
3D轨道图
轨道高度分析图
轨道倾角分析图
轨道综合分析图
查看轨道综合分析图